Total_Precipitation_Accumulation
0.00 0.00 0.00 0.00 0.00 0.00 0.00 0.00 0.00 0.00 0.00 0.00 0.00 0.00 0.00 0.00 0.00 0.00 0.00 0.00 0.00 0.00 0.00 0.00 0.00 0.01 0.02 0.06 0.11 0.22 0.45 0.71 0.83 0.85 1.04 0.97 0.29 0.12 0.09 0.05 0.08 0.08 0.05 0.02
0.00 0.00 0.00 0.00 0.00 0.00 0.00 0.00 0.00 0.00 0.00 0.00 0.00 0.00 0.00 0.00 0.00 0.00 0.00 0.00 0.00 0.00 0.00 0.00 0.00 0.00 0.00 0.02 0.06 0.22 0.26 0.41 0.43 0.57 1.07 1.56 1.59 0.94 0.28 0.15 0.11 0.06 0.02 0.01
0.00 0.00 0.00 0.00 0.00 0.00 0.00 0.00 0.00 0.00 0.00 0.00 0.00 0.00 0.00 0.00 0.00 0.00 0.00 0.00 0.00 0.00 0.00 0.00 0.00 0.00 0.00 0.01 0.02 0.13 0.21 0.25 0.29 0.32 0.43 0.76 1.42 1.86 1.41 0.72 0.30 0.20 0.20 0.09
0.00 0.00 0.00 0.00 0.00 0.00 0.00 0.00 0.00 0.00 0.00 0.00 0.00 0.00 0.00 0.00 0.00 0.00 0.00 0.00 0.00 0.00 0.00 0.00 0.00 0.00 0.01 0.05 0.08 0.13 0.21 0.25 0.23 0.24 0.25 0.29 0.38 0.65 1.01 1.22 0.87 0.44 0.16 0.11
0.00 0.00 0.00 0.00 0.00 0.00 0.00 0.00 0.00 0.00 0.00 0.01 0.00 0.00 0.00 0.00 0.00 0.00 0.00 0.00 0.00 0.00 0.00 0.00 0.00 0.00 0.00 0.02 0.06 0.08 0.15 0.16 0.20 0.28 0.25 0.26 0.24 0.23 0.28 0.57 1.04 1.19 0.77 0.58
0.00 0.00 0.00 0.00 0.00 0.00 0.00 0.00 0.00 0.00 0.01 0.03 0.00 0.00 0.00 0.00 0.00 0.00 0.00 0.00 0.00 0.00 0.00 0.00 0.00 0.00 0.00 0.00 0.01 0.03 0.04 0.06 0.11 0.19 0.21 0.19 0.17 0.19 0.26 0.27 0.28 0.46 0.88 0.93
0.00 0.00 0.00 0.00 0.00 0.00 0.01 0.04 0.03 0.03 0.04 0.01 0.00 0.00 0.00 0.00 0.00 0.00 0.00 0.00 0.00 0.00 0.00 0.00 0.00 0.00 0.00 0.00 0.00 0.01 0.04 0.05 0.05 0.09 0.15 0.16 0.15 0.16 0.14 0.13 0.14 0.17 0.19 0.33
0.01 0.00 0.00 0.00 0.00 0.01 0.03 0.03 0.04 0.04 0.02 0.00 0.00 0.00 0.00 0.00 0.00 0.00 0.00 0.00 0.00 0.00 0.00 0.00 0.00 0.00 0.00 0.00 0.00 0.02 0.05 0.06 0.03 0.03 0.08 0.14 0.15 0.13 0.08 0.06 0.06 0.08 0.14 0.19
0.01 0.00 0.00 0.00 0.00 0.03 0.06 0.06 0.05 0.10 0.02 0.01 0.00 0.00 0.00 0.00 0.00 0.00 0.00 0.00 0.00 0.00 0.00 0.00 0.00 0.00 0.00 0.00 0.00 0.01 0.03 0.02 0.02 0.01 0.03 0.09 0.09 0.11 0.10 0.08 0.06 0.05 0.08 0.14
0.02 0.05 0.00 0.00 0.00 0.01 0.04 0.02 0.04 0.05 0.03 0.01 0.00 0.00 0.03 0.04 0.02 0.01 0.00 0.00 0.00 0.00 0.00 0.00 0.00 0.00 0.00 0.00 0.00 0.00 0.03 0.04 0.05 0.03 0.03 0.04 0.05 0.10 0.15 0.18 0.22 0.16 0.16 0.20
0.03 0.07 0.01 0.00 0.00 0.01 0.03 0.02 0.01 0.03 0.02 0.03 0.01 0.01 0.05 0.08 0.05 0.05 0.02 0.01 0.01 0.01 0.00 0.00 0.00 0.00 0.00 0.00 0.01 0.05 0.08 0.12 0.15 0.13 0.11 0.04 0.05 0.10 0.13 0.11 0.12 0.19 0.26 0.27
0.03 0.06 0.01 0.00 0.00 0.00 0.00 0.04 0.08 0.12 0.08 0.08 0.11 0.07 0.13 0.23 0.19 0.16 0.11 0.11 0.08 0.06 0.04 0.02 0.01 0.01 0.01 0.01 0.01 0.04 0.07 0.12 0.12 0.16 0.19 0.16 0.12 0.09 0.11 0.15 0.20 0.22 0.19 0.23
0.04 0.05 0.05 0.00 0.01 0.00 0.01 0.02 0.08 0.13 0.21 0.14 0.24 0.13 0.24 0.26 0.39 0.31 0.35 0.60 0.43 0.27 0.19 0.13 0.10 0.09 0.07 0.07 0.05 0.06 0.08 0.10 0.10 0.14 0.22 0.26 0.25 0.23 0.25 0.22 0.20 0.24 0.29 0.29
0.03 0.07 0.10 0.11 0.06 0.04 0.05 0.04 0.05 0.18 0.17 0.13 0.17 0.21 0.23 0.39 0.49 0.61 0.68 0.93 0.92 0.78 0.71 0.53 0.42 0.37 0.25 0.21 0.13 0.09 0.08 0.11 0.16 0.16 0.16 0.18 0.22 0.30 0.32 0.29 0.28 0.24 0.26 0.35
0.02 0.06 0.07 0.04 0.04 0.04 0.07 0.07 0.05 0.12 0.08 0.24 0.18 0.18 0.22 0.43 0.66 0.86 0.67 0.70 0.90 1.25 1.21 0.86 0.77 0.71 0.51 0.40 0.34 0.24 0.16 0.27 0.17 0.25 0.25 0.22 0.19 0.19 0.23 0.36 0.44 0.43 0.43 0.48
0.00 0.03 0.04 0.03 0.05 0.03 0.05 0.02 0.02 0.03 0.09 0.18 0.11 0.14 0.23 0.28 0.43 0.60 0.58 0.60 0.51 0.60 0.95 0.92 0.70 0.70 0.55 0.52 0.35 0.24 0.35 0.27 0.17 0.25 0.28 0.24 0.25 0.28 0.28 0.29 0.27 0.28 0.34 0.36
0.00 0.01 0.03 0.07 0.08 0.06 0.04 0.01 0.03 0.07 0.09 0.08 0.10 0.13 0.13 0.14 0.13 0.16 0.19 0.25 0.28 0.15 0.12 0.25 0.26 0.51 0.48 0.39 0.37 0.23 0.17 0.19 0.12 0.17 0.31 0.37 0.56 0.53 0.38 0.44 0.28 0.24 0.44 0.49
0.00 0.00 0.02 0.01 0.02 0.02 0.02 0.02 0.02 0.08 0.07 0.06 0.07 0.10 0.09 0.03 0.01 0.00 0.01 0.02 0.05 0.06 0.06 0.04 0.04 0.06 0.13 0.18 0.33 0.28 0.19 0.14 0.14 0.10 0.11 0.11 0.14 0.34 0.42 0.62 0.21 0.14 0.17 0.18
0.00 0.00 0.01 0.02 0.01 0.01 0.01 0.01 0.01 0.01 0.03 0.03 0.03 0.03 0.02 0.01 0.00 0.00 0.00 0.00 0.00 0.01 0.03 0.05 0.02 0.01 0.00 0.02 0.05 0.05 0.09 0.14 0.17 0.16 0.14 0.14 0.13 0.12 0.08 0.09 0.05 0.05 0.06 0.07
0.00 0.00 0.00 0.01 0.01 0.00 0.00 0.00 0.00 0.00 0.02 0.00 0.00 0.00 0.00 0.00 0.00 0.00 0.00 0.00 0.00 0.00 0.00 0.01 0.02 0.02 0.02 0.01 0.00 0.00 0.01 0.02 0.08 0.10 0.07 0.07 0.08 0.10 0.10 0.10 0.09 0.09 0.09 0.09
0.00 0.00 0.01 0.01 0.00 0.00 0.00 0.00 0.00 0.00 0.00 0.00 0.00 0.00 0.00 0.00 0.00 0.00 0.00 0.00 0.00 0.00 0.00 0.00 0.00 0.00 0.00 0.01 0.00 0.00 0.00 0.00 0.00 0.01 0.01 0.01 0.00 0.01 0.01 0.02 0.03 0.05 0.08 0.10
0.00 0.00 0.00 0.00 0.00 0.00 0.00 0.00 0.00 0.00 0.00 0.00 0.00 0.00 0.00 0.00 0.00 0.00 0.00 0.00 0.00 0.00 0.00 0.00 0.00 0.00 0.00 0.00 0.00 0.00 0.00 0.00 0.00 0.00 0.00 0.00 0.00 0.00 0.00 0.00 0.00 0.00 0.00 0.00
0.00 0.00 0.00 0.00 0.00 0.00 0.00 0.00 0.00 0.00 0.00 0.00 0.00 0.00 0.00 0.00 0.00 0.00 0.00 0.00 0.00 0.00 0.00 0.00 0.00 0.00 0.00 0.00 0.00 0.00 0.00 0.00 0.00 0.00 0.00 0.00 0.00 0.00 0.00 0.00 0.00 0.00 0.00 0.00
0.00 0.00 0.00 0.00 0.00 0.00 0.00 0.00 0.00 0.00 0.00 0.00 0.00 0.00 0.00 0.00 0.00 0.00 0.00 0.00 0.00 0.00 0.00 0.00 0.00 0.00 0.00 0.00 0.00 0.00 0.00 0.00 0.00 0.00 0.00 0.00 0.00 0.00 0.00 0.00 0.00 0.00 0.00 0.00
0.00 0.00 0.00 0.00 0.00 0.00 0.00 0.00 0.00 0.00 0.00 0.00 0.00 0.00 0.00 0.00 0.00 0.00 0.00 0.00 0.00 0.00 0.00 0.00 0.00 0.00 0.00 0.00 0.00 0.00 0.00 0.00 0.00 0.00 0.00 0.00 0.00 0.00 0.00 0.00 0.00 0.00 0.00 0.01
0.00 0.00 0.00 0.00 0.00 0.00 0.00 0.00 0.00 0.00 0.00 0.00 0.00 0.00 0.00 0.00 0.00 0.00 0.00 0.00 0.00 0.00 0.00 0.00 0.00 0.00 0.00 0.00 0.00 0.00 0.00 0.00 0.00 0.00 0.00 0.00 0.00 0.00 0.00 0.00 0.00 0.00 0.00 0.00